Weather Roundup
Issued by NWS

Home | Current Version | Previous Version | Text Only | Print | Product List | Glossary On
Versions: 1 2 3 4 5 6 7 8 9 10 11 12 13 14 15 16 17 18 19 20 21 22 23 24 25 26 27 28 29 30 31 32 33 34 35 36 37 38 39 40 41 42 43 44 45 46 47 48 49 50
000
NZUS93 KARX 130159
HRRWXR

CURRENT HOURLY OBSERVATIONS ACROSS
MUCH OF THE UPPER MISSISSIPPI VALLEY
NATIONAL WEATHER SERVICE LA CROSSE WI
800 PM CST TUE DEC 12 2017


...SOUTHEAST MINNESOTA...


CITY           SKY/WX    TMP DP  RH WIND       PRES   REMARKS
ROCHESTER      CLOUDY    23  18  81 S13       29.83F WCI  11
ROCHESTER/MAYO CLOUDY    24  18  77 SE9       29.86F WCI  14
WINONA         CLOUDY    23  12  63 SE5       29.92F WCI  17
AUSTIN         CLOUDY    25  19  80 S6        29.84F WCI  18
ALBERT LEA     NOT AVBL
DODGE CENTER   CLOUDY    25  19  80 S15       29.82F WCI  12
PRESTON        CLOUDY    24  16  71 S15       29.87F WCI  11
OWATONNA       CLOUDY    28  23  80 S10G16    29.81F WCI  19
FARIBAULT      CLOUDY    28  25  86 S6        29.81F WCI  22
$$

...ELSEWHERE IN MINNESOTA...


CITY           SKY/WX    TMP DP  RH WIND       PRES   REMARKS
MINNEAPOLIS    CLOUDY    23  18  81 SE7       29.81F WCI  15
INTNL FALLS    CLOUDY    12   7  80 SE10      29.69F WCI  -1
DULUTH         LGT SNOW  11   9  92 S8        29.76F FOG     WCI  -1
RED WING       CLOUDY    23  14  68 SE8       29.84F WCI  14
REDWOOD FALLS  CLEAR     32  26  78 S7        29.74F WCI  26
MANKATO        CLOUDY    31  27  85 S8        29.80F WCI  23
WORTHINGTON    CLEAR     32  27  81 SW16      29.76F WCI  21
FAIRMONT       PTCLDY    31  25  78 SW14      29.81F WCI  21
$$

...SOUTHWEST WISCONSIN...


CITY           SKY/WX    TMP DP  RH WIND       PRES   REMARKS
LA CROSSE      CLOUDY    23  11  60 S7        29.92F WCI  15
PRAIRIE DU CHI NOT AVBL
BOSCOBEL       CLOUDY    24   9  52 S3        29.96F
LONE ROCK      CLOUDY    20   9  62 CALM      29.97F
PLATTEVILLE    NOT AVBL
FORT MC COY    CLOUDY    19   9  65 CALM      29.94F
MAUSTON-NEW LI FLURRIES  18   4  53 CALM      29.94F
VIROQUA        CLOUDY    19  10  69 S5        29.90F WCI  12
WIS DELLS      NOT AVBL
$$

...ELSEWHERE IN WISCONSIN...


CITY           SKY/WX    TMP DP  RH WIND       PRES   REMARKS
MILWAUKEE      CLOUDY    20   3  48 NW10      29.97F WCI   9
MADISON        CLOUDY    19   3  49 CALM      29.96F
GREEN BAY      CLOUDY    15   3  59 W7        29.95F WCI   5
EAU CLAIRE     CLOUDY    15  10  80 SE7       29.87F WCI   5
BLACK RVR FLS  CLOUDY    17   6  61 CALM      29.93F
MEDFORD        NOT AVBL
WAUSAU         CLOUDY    12   0  58 SW5       29.89F WCI   4
WIS RAPIDS     CLOUDY    15   2  56 SW5       29.94F WCI   8
MARSHFIELD     CLOUDY    13   3  64 SW7       29.88F WCI   3
RICE LAKE      CLOUDY    14  10  85 CALM      29.86F
$$

...NORTHEAST IOWA...


CITY           SKY/WX    TMP DP  RH WIND       PRES   REMARKS
WATERLOO       MOCLDY    26  13  57 S10       29.93F WCI  16
DUBUQUE        CLOUDY    22  12  65 SW7       29.96F WCI  13
DECORAH        CLOUDY    25  14  63 S6G12     29.90S WCI  18
MASON CITY     CLOUDY    30  21  69 SW14      29.87F WCI  19
CHARLES CITY   PTCLDY    25  16  68 S10       29.89F WCI  15
OELWEIN        CLOUDY    27  12  54 S13       29.93F WCI  16
$$

...ELSEWHERE IN IOWA...


CITY           SKY/WX    TMP DP  RH WIND       PRES   REMARKS
DES MOINES     CLEAR     29  19  66 SW12      29.96F WCI  19
IOWA CITY      CLEAR     25   8  48 SW7       30.02F WCI  17
FORT DODGE     CLEAR     29  21  72 SW13      29.89F WCI  19
MARSHALLTOWN   PTCLDY    24  15  68 S9        29.94F WCI  14
CEDAR RAPIDS   CLOUDY    21   9  59 S7        29.98F WCI  12
$$

...NORTHERN ILLINOIS...


CITY           SKY/WX    TMP DP  RH WIND       PRES   REMARKS
CHICAGO-OHARE  MOCLDY    19   8  62 W8        29.99F WCI   9
CHICAGO-MIDWAY PTCLDY    19   9  65 W12       30.01F WCI   7
MOLINE         CLOUDY    27   6  41 SW9       30.01F WCI  18
ROCKFORD       CLOUDY    20   9  62 W5        30.01F WCI  13
PEORIA         CLOUDY    26   6  42 W6        30.06F WCI  19
$$

NOTE: "FAIR" INDICATES FEW OR NO CLOUDS BELOW 12,000 FEET WITH NO
SIGNIFICANT WEATHER AND/OR OBSTRUCTIONS TO VISIBILITY. WIND
SPEEDS ARE IN MILES-PER-HOUR.




USA.gov is the U.S. government's official web portal to all federal, state and local government web resources and services.